Hurlburt Field, FL

10:19 AM CST on January 16, 2017 (GMT -0600)
Hurlburt

Weather History for KHRT - July, 2013

Change the Weather History Date:

Monday, July 15, 2013

  Actual Average Record
Temperature  
Mean Temperature 81 °F -  
Max Temperature 88 °F 87 °F 96 °F (2000)
Min Temperature 74 °F 73 °F 69 °F (2007)
Cooling Degree Days 16    
Growing Degree Days 31 (Base 50)    
Moisture  
Dew Point 72 °F    
Average Humidity 80    
Maximum Humidity 90    
Minimum Humidity 55    
Precipitation  
Precipitation 1.22 in - - ()
Sea Level Pressure  
Sea Level Pressure 30.08 in    
Wind  
Wind Speed 8 mph (East)    
Max Wind Speed 17 mph    
Max Gust Speed 23 mph    
Visibility 9 miles    
Events Rain , Thunderstorm    
Averages and records for this station are not official NWS values.
T = Trace of Precipitation, MM = Missing Value Source: NWS Daily Summary

Daily Weather History Graph

Daily Weather History Graph

Search for Another Location

Airport or City:

Trip Planner

Search our weather history database for the weather conditions in past years. The results will help you decide how hot, cold, wet, or windy it might be!

Date:

Astronomy

Jul. 15, 2013 Rise Set
Actual Time 5:55 AM CDT 7:50 PM CDT
Civil Twilight 5:28 AM CDT 8:17 PM CDT
Nautical Twilight 4:55 AM CDT 8:49 PM CDT
Astronomical Twilight 4:20 AM CDT 9:24 PM CDT
Moon 12:39 PM CDT (7/15) No Moon Set
Length of Visible Light 14h 49m
Length of Day
13h 55m
Waxing Crescent, 45% of the Moon is Illuminated
Jul 15
Waxing Crescent
Jul 15
First Quarter
Jul 22
Full
Jul 29
Last Quarter
Aug 6
New

Hourly Weather History & Observations

Time (CDT) Temp. Heat Index Dew Point Humidity Pressure Visibility Wind Dir Wind Speed Gust Speed Precip Events Conditions
12:43 AM 80.6 °F 84.6 °F 71.6 °F 74% 30.04 in 10.0 mi SSE 10.4 mph - N/A   Mostly Cloudy
1:00 AM 80.6 °F 84.6 °F 71.6 °F 74% 30.04 in 10.0 mi SSE 8.1 mph - N/A   Partly Cloudy
1:48 AM 80.6 °F 84.6 °F 71.6 °F 74% 30.04 in 10.0 mi ESE 8.1 mph - N/A   Mostly Cloudy
1:53 AM 80.6 °F 84.6 °F 71.6 °F 74% 30.04 in 10.0 mi SE 6.9 mph - N/A   Mostly Cloudy
1:58 AM 80.6 °F 84.6 °F 71.6 °F 74% 30.05 in 10.0 mi ESE 5.8 mph - N/A   Mostly Cloudy
2:21 AM 78.8 °F - 73.4 °F 83% 30.04 in 10.0 mi SSE 3.5 mph - N/A Rain Light Rain
2:31 AM 78.8 °F - 73.4 °F 83% 30.04 in 10.0 mi SE 2.3 mph - N/A   Mostly Cloudy
2:41 AM 78.8 °F - 71.6 °F 78% 30.04 in 10.0 mi ENE 5.8 mph - N/A   Mostly Cloudy
2:42 AM 78.8 °F - 71.6 °F 78% 30.04 in 10.0 mi ENE 5.8 mph - N/A   Mostly Cloudy
2:55 AM 78.8 °F - 73.4 °F 83% 30.04 in 10.0 mi ENE 8.1 mph - N/A   Mostly Cloudy
3:25 AM 78.8 °F - 73.4 °F 83% 30.04 in 8.0 mi East 4.6 mph - N/A Rain Heavy Rain
3:44 AM 77.0 °F - 71.6 °F 83% 30.04 in 10.0 mi East 8.1 mph - N/A   Mostly Cloudy
3:45 AM 77.0 °F - 71.6 °F 83% 30.04 in 10.0 mi East 8.1 mph - N/A   Mostly Cloudy
3:55 AM 77.0 °F - 71.6 °F 83% 30.04 in 10.0 mi East 6.9 mph - N/A   Scattered Clouds
4:00 AM 77.0 °F - 71.6 °F 83% 30.05 in 9.0 mi East 8.1 mph - N/A Rain Light Rain
4:05 AM 77.0 °F - 71.6 °F 83% 30.05 in 8.0 mi East 6.9 mph - N/A Rain Light Rain
4:13 AM 77.0 °F - 71.6 °F 83% 30.05 in 10.0 mi ENE 6.9 mph - N/A   Scattered Clouds
4:22 AM 77.0 °F - 73.4 °F 89% 30.05 in 10.0 mi ENE 6.9 mph - N/A Rain Light Rain
4:27 AM 77.0 °F - 73.4 °F 89% 30.04 in 5.0 mi ENE 12.7 mph 17.3 mph N/A Rain Light Rain
4:32 AM 77.0 °F - 73.4 °F 89% 30.05 in 4.0 mi ENE 11.5 mph 17.3 mph N/A Rain Light Rain
4:37 AM 77.0 °F - 73.4 °F 89% 30.05 in 7.0 mi ENE 10.4 mph - N/A Rain Light Rain
4:42 AM 77.0 °F - 73.4 °F 89% 30.06 in 10.0 mi East 8.1 mph - N/A   Light Drizzle
4:43 AM 77.0 °F - 73.4 °F 89% 30.06 in 10.0 mi East 8.1 mph - N/A   Mostly Cloudy
4:53 AM 77.0 °F - 73.4 °F 89% 30.06 in 10.0 mi ESE 5.8 mph - N/A   Mostly Cloudy
4:54 AM 77.0 °F - 73.4 °F 89% 30.06 in 9.0 mi ESE 5.8 mph - N/A Rain Light Rain
4:55 AM 77.0 °F - 73.4 °F 89% 30.06 in 8.0 mi East 4.6 mph - N/A Rain , Thunderstorm Light Thunderstorms and Rain
4:58 AM 77.0 °F - 73.4 °F 89% 30.07 in 7.0 mi ESE 3.5 mph - 0.08 in Rain , Thunderstorm Light Thunderstorms and Rain
5:03 AM 77.0 °F - 73.4 °F 89% 30.07 in 4.0 mi SSE 15.0 mph - N/A Rain , Thunderstorm Heavy Thunderstorms and Rain
5:08 AM 75.2 °F - 71.6 °F 89% 30.07 in 2.5 mi SSE 17.3 mph 23.0 mph N/A Rain , Thunderstorm Heavy Thunderstorms and Rain
5:11 AM 77.0 °F - 73.4 °F 89% 30.07 in 1.8 mi ESE 17.3 mph 23.0 mph N/A Rain , Thunderstorm Heavy Thunderstorms and Rain
5:15 AM 77.0 °F - 73.4 °F 89% 30.07 in 0.8 mi East 12.7 mph 23.0 mph N/A Rain , Thunderstorm Heavy Thunderstorms and Rain
5:20 AM 77.0 °F - 71.6 °F 83% 30.08 in 0.5 mi ESE 6.9 mph - N/A Rain , Thunderstorm Heavy Thunderstorms and Rain
5:25 AM 77.0 °F - 73.4 °F 89% 30.08 in 1.0 mi SE 8.1 mph - N/A Rain , Thunderstorm Heavy Thunderstorms and Rain
5:30 AM 77.0 °F - 73.4 °F 89% 30.07 in 1.5 mi Variable 1.2 mph - N/A Rain , Thunderstorm Heavy Thunderstorms and Rain
5:31 AM 77.0 °F - 73.4 °F 89% 30.07 in 1.8 mi Variable 1.2 mph - N/A Rain Heavy Rain
5:36 AM 77.0 °F - 73.4 °F 89% 30.07 in 3.0 mi NNE 4.6 mph - N/A Rain Light Rain
5:38 AM 77.0 °F - 73.4 °F 89% 30.07 in 7.0 mi NE 4.6 mph - N/A Rain , Thunderstorm Light Thunderstorms and Rain
5:39 AM 77.0 °F - 73.4 °F 89% 30.07 in 7.0 mi NE 4.6 mph - N/A Rain , Thunderstorm Light Thunderstorms and Rain
5:40 AM 77.0 °F - 73.4 °F 89% 30.07 in 10.0 mi ENE 6.9 mph - N/A Thunderstorm Thunderstorm
5:55 AM 77.0 °F - 73.4 °F 89% 30.09 in 10.0 mi East 6.9 mph - N/A Thunderstorm Thunderstorm
5:58 AM 76.6 °F - 73.6 °F 90% 30.10 in 10.0 mi East 6.9 mph - 1.07 in Thunderstorm Thunderstorm
6:27 AM 77.0 °F - 73.4 °F 89% 30.10 in 10.0 mi ENE 6.9 mph - N/A Thunderstorm Overcast
6:33 AM 77.0 °F - 73.4 °F 89% 30.10 in 10.0 mi ENE 6.9 mph - N/A Thunderstorm Thunderstorm
6:48 AM 77.0 °F - 73.4 °F 89% 30.10 in 10.0 mi NE 6.9 mph - N/A   Overcast
6:58 AM 76.8 °F - 73.4 °F 89% 30.12 in 10.0 mi ENE 5.8 mph - N/A Thunderstorm Overcast
7:08 AM 77.0 °F - 73.4 °F 89% 30.11 in 10.0 mi ENE 8.1 mph - N/A Thunderstorm Overcast
7:53 AM 77.0 °F - 73.4 °F 89% 30.11 in 10.0 mi East 10.4 mph - N/A   Overcast
7:58 AM 77.7 °F - 73.0 °F 85% 30.12 in 10.0 mi East 8.1 mph - N/A   Overcast
8:33 AM 77.0 °F - 71.6 °F 83% 30.12 in 10.0 mi East 10.4 mph 18.4 mph N/A   Overcast
8:58 AM 78.3 °F - 72.1 °F 81% 30.13 in 10.0 mi East 13.8 mph - N/A   Overcast
9:33 AM 80.6 °F 84.6 °F 71.6 °F 74% 30.13 in 10.0 mi East 11.5 mph - N/A   Mostly Cloudy
9:38 AM 80.6 °F 84.6 °F 71.6 °F 74% 30.13 in 10.0 mi East 11.5 mph - N/A   Mostly Cloudy
9:58 AM 79.9 °F - 71.2 °F 75% 30.14 in 10.0 mi East 13.8 mph 20.7 mph N/A Thunderstorm Mostly Cloudy
10:58 AM 82.6 °F 86.6 °F 70.0 °F 66% 30.14 in 10.0 mi East 13.8 mph - N/A   Clear
11:58 AM 85.5 °F 90.1 °F 70.0 °F 60% 30.14 in 10.0 mi East 11.5 mph - N/A   Clear
12:58 PM 85.8 °F 91.1 °F 71.1 °F 61% 30.13 in 10.0 mi East 15.0 mph - N/A   Scattered Clouds
1:09 PM 86.0 °F 90.4 °F 69.8 °F 58% 30.11 in 10.0 mi ENE 13.8 mph - N/A   Scattered Clouds
1:55 PM 86.0 °F 90.4 °F 69.8 °F 58% 30.10 in 10.0 mi ENE 13.8 mph 18.4 mph N/A   Mostly Cloudy
2:55 PM 87.8 °F 92.6 °F 69.8 °F 55% 30.08 in 10.0 mi ESE 10.4 mph - N/A   Clear
3:58 PM 86.5 °F 92.5 °F 71.4 °F 61% 30.08 in 10.0 mi SE 12.7 mph - N/A   Partly Cloudy
4:34 PM 86.0 °F 91.8 °F 71.6 °F 62% 30.06 in 10.0 mi SE 11.5 mph 18.4 mph N/A   Light Drizzle
4:43 PM 86.0 °F 91.8 °F 71.6 °F 62% 30.06 in 10.0 mi SSE 12.7 mph - N/A   Clear
4:58 PM 85.6 °F 91.1 °F 71.1 °F 62% 30.07 in 10.0 mi SSE 10.4 mph - 0.00 in   Clear
5:58 PM 84.4 °F 90.6 °F 72.9 °F 68% 30.07 in 10.0 mi SE 9.2 mph - N/A   Clear
6:06 PM 84.2 °F 90.9 °F 73.4 °F 70% 30.07 in 10.0 mi SSE 11.5 mph - N/A   Light Drizzle
6:15 PM 84.2 °F 90.9 °F 73.4 °F 70% 30.07 in 10.0 mi SE 8.1 mph - N/A   Clear
6:58 PM 81.9 °F 87.0 °F 72.9 °F 74% 30.09 in 10.0 mi SE 4.6 mph - 0.00 in   Clear
7:15 PM 82.4 °F 88.2 °F 73.4 °F 74% 30.08 in 10.0 mi SSE 2.3 mph - N/A   Light Drizzle
7:20 PM 82.4 °F 87.2 °F 71.6 °F 70% 30.08 in 10.0 mi SE 2.3 mph - N/A   Partly Cloudy
7:58 PM 81.5 °F 86.1 °F 72.1 °F 73% 30.11 in 10.0 mi Variable 1.2 mph - 0.00 in   Mostly Cloudy
7:59 PM 82.4 °F 87.2 °F 71.6 °F 70% 30.09 in 10.0 mi South 2.3 mph - N/A Rain Light Rain
8:13 PM 80.6 °F 84.6 °F 71.6 °F 74% 30.09 in 10.0 mi South 4.6 mph - N/A   Mostly Cloudy
8:32 PM 80.6 °F 85.4 °F 73.4 °F 79% 30.10 in 10.0 mi East 2.3 mph - N/A Thunderstorm Thunderstorm
8:47 PM 80.6 °F 85.4 °F 73.4 °F 79% 30.11 in 10.0 mi ESE 3.5 mph - N/A Thunderstorm Mostly Cloudy
8:51 PM 80.6 °F 85.4 °F 73.4 °F 79% 30.11 in 10.0 mi East 3.5 mph - N/A Thunderstorm Thunderstorm
8:56 PM 80.6 °F 85.4 °F 73.4 °F 79% 30.11 in 10.0 mi ESE 3.5 mph - N/A Rain , Thunderstorm Light Thunderstorms and Rain
8:58 PM 80.6 °F 85.4 °F 73.4 °F 79% 30.12 in 10.0 mi ESE 3.5 mph - 0.00 in Rain , Thunderstorm Light Thunderstorms and Rain
9:13 PM 77.0 °F - 71.6 °F 83% 30.12 in 2.0 mi ESE 6.9 mph 18.4 mph N/A Rain , Thunderstorm Light Thunderstorms and Rain
9:18 PM 75.2 °F - 71.6 °F 89% 30.12 in 3.0 mi ESE 5.8 mph - N/A Rain , Thunderstorm Light Thunderstorms and Rain
9:35 PM 77.0 °F - 71.6 °F 83% 30.12 in 10.0 mi SE 3.5 mph - N/A Thunderstorm Light Drizzle
9:42 PM 77.0 °F - 71.6 °F 83% 30.12 in 10.0 mi NNE 4.6 mph - N/A   Mostly Cloudy
9:58 PM 76.3 °F - 72.7 °F 89% 30.13 in 10.0 mi NNE 5.8 mph - 0.07 in   Partly Cloudy
10:58 PM 75.9 °F - 72.1 °F 88% 30.14 in 10.0 mi ENE 9.2 mph - N/A   Clear
11:58 PM 74.7 °F - 70.5 °F 87% 30.14 in 10.0 mi NE 5.8 mph - N/A   Clear